Monticello, KY

4:49 PM EDT on August 18, 2017 (GMT -0400)
Wayne County

Weather History for KEKQ - January, 2013

Change the Weather History Date:

Saturday, January 12, 2013

  Actual Average Record
Temperature  
Mean Temperature 66 °F -  
Max Temperature 68 °F 41 °F 70 °F (1960)
Min Temperature 63 °F 20 °F -5 °F (1981)
Growing Degree Days 16 (Base 50)    
Moisture  
Dew Point 64 °F    
Average Humidity 95    
Maximum Humidity 100    
Minimum Humidity 76    
Precipitation  
Precipitation 0.23 in - - ()
Sea Level Pressure  
Sea Level Pressure 30.04 in    
Wind  
Wind Speed 6 mph (South)    
Max Wind Speed 16 mph    
Max Gust Speed 23 mph    
Visibility 6 miles    
Events Rain    
Averages and records for this station are not official NWS values.
T = Trace of Precipitation, MM = Missing Value Source: NWS Daily Summary

Daily Weather History Graph

Daily Weather History Graph

Search for Another Location

Airport or City:

Trip Planner

Search our weather history database for the weather conditions in past years. The results will help you decide how hot, cold, wet, or windy it might be!

Date:

Astronomy

Jan. 12, 2013 Rise Set
Actual Time 6:52 AM CST 4:44 PM CST
Civil Twilight 6:23 AM CST 5:12 PM CST
Nautical Twilight 5:51 AM CST 5:44 PM CST
Astronomical Twilight 5:20 AM CST 6:15 PM CST
Moon 7:12 AM CST (1/12) 6:08 PM CST (1/12)
Length of Visible Light 10h 48m
Length of Day
9h 51m
New Moon, 1% of the Moon is Illuminated
Jan 12
New Moon
Jan 18
First Quarter
Jan 26
Full
Feb 3
Last Quarter
Feb 10
New

Hourly Weather History & Observations

Time (CST) Temp. Dew Point Humidity Pressure Visibility Wind Dir Wind Speed Gust Speed Precip Events Conditions
12:56 AM 63.9 °F 61.9 °F 93% 30.06 in 10.0 mi SSW 5.8 mph - N/A   Overcast
1:56 AM 65.8 °F 61.9 °F 87% 30.07 in 10.0 mi WSW 8.1 mph - N/A   Overcast
2:45 AM 66.2 °F 62.6 °F 88% 30.06 in 10.0 mi SSW 10.4 mph - N/A   Mostly Cloudy
2:56 AM 64.9 °F 61.9 °F 90% 30.06 in 10.0 mi SSW 10.4 mph - N/A   Scattered Clouds
3:42 AM 66.2 °F 62.6 °F 88% 30.05 in 10.0 mi SW 8.1 mph - N/A   Mostly Cloudy
3:56 AM 65.8 °F 63.0 °F 90% 30.05 in 10.0 mi SW 10.4 mph - N/A   Mostly Cloudy
4:56 AM 65.8 °F 61.9 °F 87% 30.05 in 10.0 mi SW 9.2 mph - N/A   Mostly Cloudy
5:56 AM 64.9 °F 61.9 °F 90% 30.07 in 10.0 mi SSW 11.5 mph - N/A   Mostly Cloudy
6:56 AM 64.9 °F 63.0 °F 93% 30.09 in 10.0 mi SSW 9.2 mph - N/A   Scattered Clouds
7:42 AM 66.2 °F 62.6 °F 88% 30.09 in 10.0 mi SSE 4.6 mph - N/A   Overcast
7:56 AM 64.9 °F 61.9 °F 90% 30.10 in 10.0 mi SSE 3.5 mph - N/A   Overcast
8:15 AM 64.4 °F 62.6 °F 94% 30.09 in 10.0 mi SSE 6.9 mph - N/A   Mostly Cloudy
8:56 AM 64.9 °F 63.0 °F 93% 30.10 in 10.0 mi SE 8.1 mph - N/A   Mostly Cloudy
9:08 AM 64.4 °F 62.6 °F 94% 30.09 in 2.5 mi SE 6.9 mph - 0.00 in Rain Light Rain
9:16 AM 64.4 °F 64.4 °F 100% 30.09 in 7.0 mi SE 5.8 mph - 0.00 in Rain Light Rain
9:47 AM 64.4 °F 64.4 °F 100% 30.09 in 6.0 mi SSE 5.8 mph - 0.00 in Rain Light Rain
9:56 AM 63.9 °F 63.9 °F 100% 30.09 in 1.2 mi SSE 4.6 mph - 0.02 in Rain Rain
10:12 AM 64.4 °F 64.4 °F 100% 30.09 in 2.0 mi Calm Calm - 0.02 in Rain Light Rain
10:20 AM 64.4 °F 64.4 °F 100% 30.09 in 2.5 mi Calm Calm - 0.03 in Rain Light Rain
10:36 AM 64.4 °F 64.4 °F 100% 30.09 in 2.5 mi Calm Calm - 0.04 in Rain Light Rain
10:56 AM 64.9 °F 64.9 °F 100% 30.09 in 2.0 mi Calm Calm - 0.06 in Rain Light Rain
10:58 AM 64.4 °F 64.4 °F 100% 30.08 in 1.8 mi Calm Calm - 0.00 in Rain Rain
11:16 AM 64.4 °F 64.4 °F 100% 30.06 in 2.5 mi Calm Calm - 0.02 in Rain Light Rain
11:24 AM 64.4 °F 64.4 °F 100% 30.06 in 4.0 mi Calm Calm - 0.02 in Rain Light Rain
11:34 AM 64.4 °F 64.4 °F 100% 30.06 in 2.0 mi Calm Calm - 0.03 in Rain Light Rain
11:42 AM 66.2 °F 66.2 °F 100% 30.05 in 7.0 mi SSE 6.9 mph - 0.03 in Rain Light Rain
11:56 AM 65.8 °F 65.8 °F 100% 30.05 in 10.0 mi SE 4.6 mph - 0.03 in   Scattered Clouds
12:28 PM 66.2 °F 66.2 °F 100% 30.05 in 1.5 mi SW 5.8 mph - 0.02 in Rain Light Rain
12:33 PM 66.2 °F 66.2 °F 100% 30.05 in 0.8 mi SSW 6.9 mph - 0.03 in Rain Rain
12:40 PM 66.2 °F 66.2 °F 100% 30.05 in 1.0 mi SSW 5.8 mph - 0.05 in Rain Rain
12:56 PM 64.9 °F 64.9 °F 100% 30.04 in 1.2 mi Calm Calm - 0.07 in Rain Light Rain
1:00 PM 64.4 °F 64.4 °F 100% 30.04 in 2.0 mi Calm Calm - 0.00 in Rain Light Rain
1:08 PM 64.4 °F 64.4 °F 100% 30.03 in 2.0 mi Calm Calm - 0.01 in Rain Light Rain
1:12 PM 64.4 °F 64.4 °F 100% 30.03 in 1.2 mi Calm Calm - 0.01 in Rain Light Rain
1:19 PM 64.4 °F 64.4 °F 100% 30.03 in 0.8 mi Calm Calm - 0.01 in Rain Light Rain
1:31 PM 64.4 °F 64.4 °F 100% 30.03 in 0.8 mi Calm Calm - 0.02 in Rain Light Rain
1:56 PM 64.9 °F 64.9 °F 100% 30.02 in 1.2 mi Calm Calm - 0.04 in Rain Light Rain
2:01 PM 64.4 °F 64.4 °F 100% 30.02 in 2.0 mi Calm Calm - 0.00 in Rain Light Rain
2:03 PM 64.4 °F 64.4 °F 100% 30.02 in 2.5 mi Calm Calm - 0.00 in Rain Light Rain
2:10 PM 64.4 °F 64.4 °F 100% 30.02 in 1.8 mi Calm Calm - 0.00 in Rain Light Rain
2:14 PM 64.4 °F 64.4 °F 100% 30.02 in 1.2 mi Calm Calm - 0.01 in Rain Light Rain
2:23 PM 64.4 °F 64.4 °F 100% 30.02 in 1.0 mi Calm Calm - 0.01 in Rain Light Rain
2:26 PM 64.4 °F 64.4 °F 100% 30.02 in 1.2 mi Calm Calm - 0.01 in Rain Light Rain
2:30 PM 64.4 °F 64.4 °F 100% 30.02 in 2.0 mi Calm Calm - 0.01 in Rain Light Rain
2:36 PM 64.4 °F 64.4 °F 100% 30.01 in 5.0 mi Calm Calm - 0.01 in Rain Light Rain
2:56 PM 65.8 °F 65.8 °F 100% 30.01 in 10.0 mi South 4.6 mph - 0.01 in   Partly Cloudy
3:56 PM 68.0 °F 64.9 °F 90% 30.00 in 10.0 mi SSE 6.9 mph - N/A   Mostly Cloudy
4:56 PM 65.8 °F 63.0 °F 90% 30.00 in 10.0 mi Calm Calm - N/A   Mostly Cloudy
5:29 PM 66.2 °F 62.6 °F 88% 29.99 in 10.0 mi SSE 5.8 mph - N/A   Mostly Cloudy
5:56 PM 66.9 °F 61.9 °F 84% 29.99 in 10.0 mi SSE 9.2 mph - N/A   Clear
6:56 PM 66.9 °F 61.9 °F 84% 29.98 in 10.0 mi South 10.4 mph - N/A   Partly Cloudy
7:56 PM 66.9 °F 61.9 °F 84% 29.97 in 10.0 mi SSE 12.7 mph - N/A   Partly Cloudy
8:56 PM 65.8 °F 61.0 °F 84% 29.97 in 10.0 mi South 9.2 mph - N/A   Partly Cloudy
9:56 PM 66.9 °F 61.0 °F 81% 29.96 in 10.0 mi SSE 9.2 mph - N/A   Overcast
10:56 PM 66.9 °F 59.9 °F 78% 29.96 in 10.0 mi South 16.1 mph 23.0 mph N/A   Mostly Cloudy
11:56 PM 65.8 °F 57.9 °F 76% 29.94 in 10.0 mi South 15.0 mph 20.7 mph N/A   Clear